| time (UTC) | temp F | wind direction | speed knots | gust knots | rain 1hr in | rain 24hr in | rain mn in | humidity % | barometer mb |
| 20260510004633 | 85 | 161 | 1.7 | 2.6 | 0.00 | 0.01 | 0.01 | 65 | 1010.3 |
| 20260510004131 | 85 | 167 | 0.9 | 0.9 | 0.00 | 0.01 | 0.01 | 65 | 1010.0 |
| 20260510003627 | 86 | 152 | 0.9 | 0.9 | 0.00 | 0.01 | 0.01 | 64 | 1010.0 |
| 20260510003123 | 86 | 168 | 1.7 | 2.6 | 0.00 | 0.01 | 0.01 | 63 | 1010.3 |
| 20260510002617 | 86 | 112 | 1.7 | 1.7 | 0.00 | 0.01 | 0.01 | 63 | 1010.0 |
| 20260510002115 | 86 | 218 | 1.7 | 2.6 | 0.00 | 0.01 | 0.01 | 62 | 1010.0 |
| 20260510001612 | 86 | 112 | 0.9 | 1.7 | 0.00 | 0.01 | 0.01 | 62 | 1010.0 |
| 20260510001111 | 86 | 207 | 2.6 | 4.3 | 0.00 | 0.01 | 0.01 | 61 | 1010.0 |
| 20260510000611 | 87 | 167 | 1.7 | 1.7 | 0.00 | 0.01 | 0.01 | 61 | 1010.0 |
| 20260510000108 | 87 | 101 | 1.7 | 1.7 | 0.00 | 0.01 | 0.01 | 60 | 1010.0 |
| 20260509235604 | 87 | 65 | 0.9 | 1.7 | 0.00 | 0.01 | 0.01 | 60 | 1009.6 |
| 20260509235102 | 87 | 154 | 0.0 | 0.0 | 0.00 | 0.01 | 0.01 | 60 | 1009.6 |
| 20260509234557 | 87 | 242 | 0.0 | 0.0 | 0.00 | 0.01 | 0.01 | 60 | 1010.0 |
| 20260509234055 | 87 | 161 | 0.9 | 1.7 | 0.00 | 0.01 | 0.01 | 59 | 1009.6 |
| 20260509233553 | 87 | 254 | 0.0 | 0.9 | 0.00 | 0.01 | 0.01 | 60 | 1009.6 |
| 20260509233050 | 87 | 189 | 1.7 | 1.7 | 0.00 | 0.01 | 0.01 | 60 | 1009.6 |
| 20260509232546 | 88 | 177 | 1.7 | 2.6 | 0.00 | 0.01 | 0.01 | 59 | 1009.3 |
| 20260509232043 | 88 | 253 | 0.9 | 0.9 | 0.00 | 0.01 | 0.01 | 60 | 1009.6 |
| 20260509231539 | 88 | 231 | 3.5 | 4.3 | 0.00 | 0.01 | 0.01 | 58 | 1009.6 |
| 20260509231037 | 89 | 238 | 0.9 | 0.9 | 0.00 | 0.01 | 0.01 | 57 | 1009.6 |
| 20260509230534 | 89 | 179 | 1.7 | 1.7 | 0.00 | 0.01 | 0.01 | 55 | 1009.3 |
| 20260509230031 | 89 | 197 | 0.9 | 1.7 | 0.00 | 0.01 | 0.01 | 56 | 1009.3 |
| 20260509225526 | 89 | 253 | 0.0 | 0.0 | 0.00 | 0.01 | 0.01 | 55 | 1009.3 |
| 20260509225022 | 89 | 243 | 0.0 | 0.0 | 0.00 | 0.01 | 0.01 | 54 | 1009.6 |
| 20260509224518 | 89 | 258 | 0.0 | 0.0 | 0.00 | 0.01 | 0.01 | 53 | 1009.6 |
| 20260509224015 | 89 | 179 | 0.9 | 0.9 | 0.00 | 0.01 | 0.01 | 56 | 1009.3 |
| 20260509223512 | 89 | 167 | 0.0 | 0.0 | 0.00 | 0.01 | 0.01 | 55 | 1009.6 |
| 20260509223010 | 89 | 160 | 0.0 | 0.9 | 0.00 | 0.01 | 0.01 | 54 | 1009.6 |
| 20260509222505 | 88 | 285 | 0.0 | 0.0 | 0.00 | 0.01 | 0.01 | 54 | 1009.6 |
| 20260509222001 | 88 | 310 | 0.9 | 0.9 | 0.00 | 0.01 | 0.01 | 54 | 1009.3 |
| 20260509221457 | 89 | 254 | 0.9 | 0.9 | 0.00 | 0.01 | 0.01 | 53 | 1009.6 |
| 20260509220953 | 87 | 270 | 0.0 | 0.0 | 0.00 | 0.01 | 0.01 | 50 | 1009.6 |
| 20260509220449 | 88 | 293 | 0.0 | 0.0 | 0.00 | 0.01 | 0.01 | 51 | 1009.3 |
| 20260509215945 | 87 | 326 | 0.9 | 1.7 | 0.00 | 0.01 | 0.01 | 51 | 1009.6 |
| 20260509215441 | 87 | 270 | 0.0 | 0.0 | 0.00 | 0.01 | 0.01 | 49 | 1009.6 |
| 20260509214939 | 88 | 267 | 0.0 | 0.9 | 0.00 | 0.01 | 0.01 | 49 | 1010.0 |
| 20260509214436 | 87 | 215 | 0.9 | 1.7 | 0.00 | 0.01 | 0.01 | 51 | 1009.6 |
| 20260509213932 | 86 | 213 | 0.0 | 0.9 | 0.00 | 0.01 | 0.01 | 51 | 1010.0 |
| 20260509213428 | 87 | 267 | 0.0 | 0.0 | 0.00 | 0.01 | 0.01 | 53 | 1010.0 |
| 20260509212926 | 88 | 264 | 0.9 | 0.9 | 0.00 | 0.01 | 0.01 | 51 | 1010.3 |
| 20260509212423 | 87 | 301 | 2.6 | 2.6 | 0.00 | 0.01 | 0.01 | 51 | 1010.0 |
| 20260509211919 | 87 | 183 | 0.0 | 0.0 | 0.00 | 0.01 | 0.01 | 53 | 1010.0 |
| 20260509211415 | 85 | 273 | 0.9 | 0.9 | 0.00 | 0.01 | 0.01 | 52 | 1010.0 |
| 20260509210911 | 83 | 242 | 0.9 | 1.7 | 0.00 | 0.01 | 0.01 | 54 | 1010.3 |
| 20260509210409 | 84 | 239 | 0.9 | 0.9 | 0.00 | 0.01 | 0.01 | 58 | 1010.3 |
| 20260509205904 | 82 | 282 | 0.0 | 0.9 | 0.00 | 0.01 | 0.01 | 57 | 1010.7 |
| 20260509205403 | 81 | 322 | 1.7 | 1.7 | 0.00 | 0.01 | 0.01 | 69 | 1010.3 |
| 20260509204900 | 79 | 228 | 0.9 | 0.9 | 0.00 | 0.01 | 0.01 | 70 | 1010.7 |
| 20260509204356 | 77 | 192 | 0.9 | 0.9 | 0.00 | 0.01 | 0.01 | 73 | 1010.7 |
| 20260509203853 | 77 | 246 | 0.9 | 0.9 | 0.00 | 0.01 | 0.01 | 76 | 1010.7 |
| 20260509203349 | 75 | 255 | 0.0 | 0.0 | 0.00 | 0.01 | 0.01 | 79 | 1010.7 |
| 20260509202847 | 75 | 245 | 0.0 | 0.0 | 0.00 | 0.01 | 0.01 | 80 | 1010.0 |
| 20260509202342 | 74 | 292 | 0.9 | 0.9 | 0.00 | 0.01 | 0.01 | 79 | 1010.7 |
| 20260509201837 | 74 | 313 | 0.0 | 0.0 | 0.00 | 0.01 | 0.01 | 79 | 1010.7 |
| 20260509201328 | 75 | 316 | 0.9 | 0.9 | 0.00 | 0.01 | 0.01 | 76 | 1010.7 |
| 20260509200824 | 76 | 267 | 0.9 | 0.9 | 0.00 | 0.01 | 0.01 | 71 | 1011.0 |
| 20260509200320 | 77 | 328 | 2.6 | 2.6 | 0.00 | 0.01 | 0.01 | 64 | 1011.7 |
| 20260509195817 | 77 | 293 | 3.5 | 4.3 | 0.00 | 0.01 | 0.01 | 58 | 1011.3 |
| 20260509195317 | 78 | 10 | 5.2 | 7.0 | 0.00 | 0.01 | 0.01 | 55 | 1011.3 |
| 20260509194817 | 79 | 350 | 5.2 | 6.1 | 0.00 | 0.01 | 0.01 | 56 | 1011.3 |
| 20260509194313 | 87 | 346 | 4.3 | 5.2 | 0.00 | 0.01 | 0.01 | 58 | 1011.3 |
| 20260509193810 | 87 | 59 | 0.0 | 0.0 | 0.00 | 0.01 | 0.01 | 63 | 1011.3 |
| 20260509193309 | 88 | 62 | 2.6 | 2.6 | 0.00 | 0.01 | 0.01 | 62 | 1011.0 |
| 20260509192806 | 89 | 190 | 2.6 | 2.6 | 0.00 | 0.01 | 0.01 | 60 | 1010.7 |
| 20260509192305 | 90 | 189 | 1.7 | 2.6 | 0.00 | 0.01 | 0.01 | 60 | 1010.7 |
| 20260509191757 | 90 | 234 | 0.0 | 0.9 | 0.00 | 0.01 | 0.01 | 59 | 1011.0 |
| 20260509191253 | 89 | 212 | 3.5 | 5.2 | 0.00 | 0.01 | 0.01 | 59 | 1011.3 |
| 20260509190749 | 89 | 210 | 2.6 | 4.3 | 0.00 | 0.01 | 0.01 | 61 | 1011.0 |
| 20260509190247 | 90 | 230 | 1.7 | 1.7 | 0.00 | 0.01 | 0.01 | 60 | 1011.0 |
| 20260509185744 | 88 | 196 | 2.6 | 5.2 | 0.00 | 0.01 | 0.01 | 63 | 1011.0 |
| 20260509185240 | 88 | 132 | 1.7 | 4.3 | 0.00 | 0.01 | 0.01 | 64 | 1011.3 |
| 20260509184738 | 90 | 158 | 0.9 | 0.9 | 0.00 | 0.01 | 0.01 | 62 | 1011.3 |
| 20260509184235 | 89 | 212 | 2.6 | 4.3 | 0.00 | 0.01 | 0.01 | 62 | 1011.7 |
| 20260509183731 | 89 | 273 | 0.0 | 0.9 | 0.00 | 0.01 | 0.01 | 63 | 1011.7 |
| 20260509183226 | 90 | 96 | 2.6 | 2.6 | 0.00 | 0.01 | 0.01 | 61 | 1011.7 |
| 20260509182722 | 89 | 203 | 0.0 | 0.0 | 0.00 | 0.01 | 0.01 | 66 | 1011.7 |
| 20260509182220 | 88 | 268 | 1.7 | 1.7 | 0.00 | 0.01 | 0.01 | 64 | 1012.0 |
| 20260509181717 | 87 | 183 | 0.9 | 2.6 | 0.00 | 0.01 | 0.01 | 66 | 1011.7 |
| 20260509181215 | 87 | 212 | 1.7 | 1.7 | 0.00 | 0.01 | 0.01 | 67 | 1012.0 |
| 20260509180712 | 87 | 208 | 2.6 | 2.6 | 0.00 | 0.01 | 0.01 | 66 | 1012.0 |
| 20260509180208 | 86 | 183 | 2.6 | 2.6 | 0.00 | 0.01 | 0.01 | 69 | 1012.0 |
| 20260509175704 | 86 | 240 | 0.9 | 0.9 | 0.00 | 0.01 | 0.01 | 70 | 1012.4 |
| 20260509175201 | 86 | 152 | 0.9 | 0.9 | 0.00 | 0.01 | 0.01 | 69 | 1012.0 |
| 20260509174656 | 86 | 209 | 1.7 | 1.7 | 0.00 | 0.01 | 0.01 | 68 | 1012.4 |
| 20260509174151 | 86 | 253 | 0.0 | 0.9 | 0.00 | 0.01 | 0.01 | 70 | 1012.4 |
| 20260509173648 | 85 | 274 | 0.0 | 0.9 | 0.00 | 0.01 | 0.01 | 71 | 1012.7 |
| 20260509173143 | 85 | 184 | 3.5 | 4.3 | 0.00 | 0.01 | 0.01 | 70 | 1012.7 |
| 20260509172640 | 84 | 239 | 0.9 | 1.7 | 0.00 | 0.01 | 0.01 | 73 | 1012.7 |
| 20260509172136 | 83 | 190 | 1.7 | 1.7 | 0.00 | 0.01 | 0.01 | 75 | 1012.7 |
| 20260509171632 | 83 | 184 | 2.6 | 2.6 | 0.00 | 0.01 | 0.01 | 74 | 1012.7 |
| 20260509171128 | 84 | 239 | 2.6 | 2.6 | 0.00 | 0.01 | 0.01 | 77 | 1012.4 |
| 20260509170625 | 84 | 287 | 1.7 | 1.7 | 0.00 | 0.01 | 0.01 | 73 | 1012.4 |
| 20260509170121 | 84 | 175 | 3.5 | 5.2 | 0.00 | 0.01 | 0.01 | 74 | 1012.4 |
| 20260509165619 | 83 | 288 | 1.7 | 4.3 | 0.00 | 0.01 | 0.01 | 76 | 1012.4 |
| 20260509165115 | 83 | 247 | 2.6 | 2.6 | 0.00 | 0.01 | 0.01 | 77 | 1012.4 |
| 20260509164611 | 84 | 218 | 1.7 | 1.7 | 0.00 | 0.01 | 0.01 | 76 | 1012.4 |
| 20260509164107 | 82 | 228 | 0.9 | 0.9 | 0.00 | 0.01 | 0.01 | 77 | 1012.7 |
| 20260509163606 | 82 | 292 | 2.6 | 2.6 | 0.00 | 0.01 | 0.01 | 78 | 1012.7 |
| 20260509163101 | 81 | 194 | 2.6 | 2.6 | 0.00 | 0.01 | 0.01 | 79 | 1012.7 |
| 20260509162558 | 81 | 188 | 3.5 | 5.2 | 0.00 | 0.01 | 0.01 | 79 | 1012.7 |
| 20260509162054 | 81 | 253 | 1.7 | 1.7 | 0.00 | 0.01 | 0.01 | 79 | 1012.7 |
| 20260509161550 | 81 | 200 | 2.6 | 4.3 | 0.00 | 0.01 | 0.01 | 80 | 1012.7 |
| 20260509161045 | 81 | 133 | 2.6 | 4.3 | 0.00 | 0.01 | 0.01 | 79 | 1012.7 |
| 20260509160541 | 81 | 230 | 0.9 | 1.7 | 0.00 | 0.01 | 0.01 | 80 | 1012.7 |
| 20260509160037 | 80 | 207 | 1.7 | 1.7 | 0.00 | 0.01 | 0.01 | 81 | 1012.7 |
| 20260509155533 | 81 | 173 | 3.5 | 4.3 | 0.00 | 0.01 | 0.01 | 80 | 1012.4 |
| 20260509155029 | 81 | 270 | 2.6 | 4.3 | 0.00 | 0.01 | 0.01 | 79 | 1012.7 |
| 20260509154526 | 82 | 229 | 1.7 | 2.6 | 0.00 | 0.01 | 0.01 | 78 | 1012.7 |
| 20260509154023 | 81 | 187 | 3.5 | 4.3 | 0.00 | 0.01 | 0.01 | 80 | 1012.7 |
| 20260509153520 | 81 | 192 | 1.7 | 2.6 | 0.00 | 0.01 | 0.01 | 80 | 1012.7 |
| 20260509153017 | 80 | 234 | 3.5 | 4.3 | 0.00 | 0.01 | 0.01 | 82 | 1012.7 |
| 20260509152513 | 79 | 197 | 1.7 | 1.7 | 0.00 | 0.01 | 0.01 | 84 | 1012.7 |
| 20260509152009 | 79 | 231 | 3.5 | 4.3 | 0.00 | 0.01 | 0.01 | 84 | 1012.7 |
| 20260509151506 | 79 | 202 | 4.3 | 6.1 | 0.00 | 0.01 | 0.01 | 85 | 1012.7 |
| 20260509151005 | 78 | 254 | 3.5 | 5.2 | 0.00 | 0.01 | 0.01 | 86 | 1012.7 |
| 20260509150501 | 77 | 271 | 4.3 | 6.1 | 0.00 | 0.01 | 0.01 | 89 | 1012.7 |
| 20260509145959 | 76 | 161 | 3.5 | 5.2 | 0.00 | 0.01 | 0.01 | 92 | 1012.7 |
| 20260509145455 | 75 | 200 | 2.6 | 4.3 | 0.00 | 0.01 | 0.01 | 94 | 1012.7 |
| 20260509144950 | 75 | 200 | 0.9 | 1.7 | 0.00 | 0.01 | 0.01 | 96 | 1012.4 |
| 20260509144447 | 75 | 189 | 1.7 | 2.6 | 0.00 | 0.01 | 0.01 | 97 | 1012.4 |
| 20260509143944 | 74 | 203 | 2.6 | 2.6 | 0.00 | 0.01 | 0.01 | 98 | 1012.4 |
| 20260509143441 | 74 | 236 | 0.9 | 0.9 | 0.00 | 0.01 | 0.01 | 98 | 1012.4 |
| 20260509142938 | 74 | 183 | 1.7 | 2.6 | 0.00 | 0.01 | 0.01 | 98 | 1012.4 |
| 20260509142434 | 74 | 161 | 1.7 | 2.6 | 0.00 | 0.01 | 0.01 | 98 | 1012.4 |
| 20260509141930 | 74 | 157 | 1.7 | 2.6 | 0.00 | 0.01 | 0.01 | 98 | 1012.0 |
| 20260509141427 | 73 | 193 | 1.7 | 1.7 | 0.00 | 0.01 | 0.01 | 99 | 1012.0 |
| 20260509140924 | 73 | 207 | 0.9 | 0.9 | 0.00 | 0.01 | 0.01 | 98 | 1012.4 |
| 20260509140420 | 73 | 207 | 0.9 | 1.7 | 0.00 | 0.01 | 0.01 | 98 | 1012.4 |
| 20260509135918 | 73 | 168 | 1.7 | 1.7 | 0.00 | 0.01 | 0.01 | 98 | 1012.7 |
| 20260509135416 | 73 | 247 | 0.0 | 0.0 | 0.00 | 0.01 | 0.01 | 98 | 1012.7 |
| 20260509134913 | 73 | 149 | 0.9 | 0.9 | 0.00 | 0.01 | 0.01 | 98 | 1012.7 |
| 20260509134410 | 73 | 207 | 0.9 | 0.9 | 0.00 | 0.01 | 0.01 | 98 | 1012.7 |
| 20260509133907 | 73 | 206 | 0.0 | 0.9 | 0.00 | 0.01 | 0.01 | 98 | 1012.7 |
| 20260509133403 | 73 | 214 | 0.9 | 0.9 | 0.00 | 0.01 | 0.01 | 98 | 1012.7 |
| 20260509132902 | 73 | 239 | 0.0 | 0.9 | 0.00 | 0.01 | 0.01 | 98 | 1012.7 |
| 20260509132400 | 73 | 241 | 0.0 | 0.0 | 0.00 | 0.01 | 0.01 | 98 | 1012.4 |
| 20260509131857 | 73 | 202 | 0.0 | 0.9 | 0.00 | 0.01 | 0.01 | 98 | 1012.7 |
| 20260509131354 | 73 | 240 | 0.0 | 0.0 | 0.00 | 0.01 | 0.01 | 98 | 1012.7 |
| 20260509130850 | 73 | 238 | 0.9 | 0.9 | 0.00 | 0.01 | 0.01 | 98 | 1012.7 |
| 20260509130345 | 73 | 267 | 0.0 | 0.0 | 0.00 | 0.01 | 0.01 | 98 | 1012.0 |
| 20260509125843 | 73 | 268 | 0.0 | 0.0 | 0.01 | 0.01 | 0.01 | 98 | 1012.0 |
| 20260509125339 | 73 | 256 | 0.0 | 0.0 | 0.01 | 0.01 | 0.01 | 98 | 1012.0 |
| 20260509124835 | 73 | 297 | 0.9 | 1.7 | 0.01 | 0.01 | 0.01 | 98 | 1012.0 |
| 20260509124332 | 73 | 304 | 0.9 | 0.9 | 0.01 | 0.01 | 0.01 | 98 | 1011.7 |
| 20260509123830 | 73 | 305 | 0.0 | 0.0 | 0.01 | 0.01 | 0.01 | 98 | 1011.7 |
| 20260509123327 | 73 | 336 | 1.7 | 1.7 | 0.01 | 0.01 | 0.01 | 98 | 1012.0 |
| 20260509122823 | 73 | 296 | 0.9 | 0.9 | 0.01 | 0.01 | 0.01 | 98 | 1012.0 |
| 20260509122320 | 73 | 292 | 0.9 | 0.9 | 0.01 | 0.01 | 0.01 | 98 | 1012.7 |
| 20260509121817 | 73 | 258 | 0.0 | 0.0 | 0.00 | 0.00 | 0.00 | 98 | 1012.4 |
| 20260509121314 | 73 | 263 | 0.0 | 0.0 | 0.00 | 0.00 | 0.00 | 98 | 1012.4 |
| 20260509120813 | 73 | 261 | 0.0 | 0.0 | 0.00 | 0.00 | 0.00 | 98 | 1012.4 |
| 20260509120310 | 73 | 293 | 0.9 | 0.9 | 0.00 | 0.00 | 0.00 | 98 | 1012.0 |
| 20260509115808 | 73 | 270 | 0.0 | 0.0 | 0.00 | 0.00 | 0.00 | 98 | 1012.4 |
| 20260509115307 | 73 | 272 | 0.0 | 0.0 | 0.00 | 0.00 | 0.00 | 98 | 1012.0 |
| 20260509114803 | 73 | 285 | 0.0 | 0.0 | 0.00 | 0.00 | 0.00 | 98 | 1012.4 |
| 20260509114301 | 73 | 308 | 0.0 | 0.9 | 0.00 | 0.00 | 0.00 | 98 | 1012.4 |
| 20260509113800 | 73 | 323 | 1.7 | 1.7 | 0.00 | 0.00 | 0.00 | 98 | 1012.7 |
| 20260509113256 | 73 | 335 | 0.9 | 1.7 | 0.00 | 0.00 | 0.00 | 98 | 1012.7 |
| 20260509112753 | 73 | 304 | 0.9 | 0.9 | 0.00 | 0.00 | 0.00 | 98 | 1012.7 |
| 20260509112250 | 73 | 281 | 0.9 | 0.9 | 0.00 | 0.00 | 0.00 | 98 | 1012.7 |
| 20260509111747 | 73 | 323 | 1.7 | 1.7 | 0.00 | 0.00 | 0.00 | 98 | 1012.7 |
| 20260509111244 | 73 | 278 | 0.9 | 0.9 | 0.00 | 0.00 | 0.00 | 98 | 1012.7 |
| 20260509110741 | 73 | 0 | 1.7 | 2.6 | 0.00 | 0.00 | 0.00 | 98 | 1013.1 |
| 20260509110238 | 73 | 327 | 1.7 | 1.7 | 0.00 | 0.00 | 0.00 | 98 | 1012.7 |
| 20260509105736 | 73 | 221 | 0.0 | 0.9 | 0.00 | 0.00 | 0.00 | 98 | 1012.7 |
| 20260509105233 | 73 | 252 | 0.0 | 0.0 | 0.00 | 0.00 | 0.00 | 98 | 1013.1 |
| 20260509104730 | 73 | 323 | 1.7 | 1.7 | 0.00 | 0.00 | 0.00 | 98 | 1013.1 |
| 20260509104227 | 73 | 326 | 1.7 | 1.7 | 0.00 | 0.00 | 0.00 | 98 | 1013.1 |
| 20260509103725 | 73 | 354 | 2.6 | 2.6 | 0.00 | 0.00 | 0.00 | 98 | 1013.5 |
| 20260509103222 | 73 | 328 | 1.7 | 1.7 | 0.00 | 0.00 | 0.00 | 98 | 1013.5 |
| 20260509102720 | 73 | 335 | 1.7 | 1.7 | 0.00 | 0.00 | 0.00 | 98 | 1013.5 |
| 20260509102217 | 73 | 334 | 1.7 | 1.7 | 0.00 | 0.00 | 0.00 | 98 | 1013.1 |
| 20260509101713 | 73 | 327 | 1.7 | 1.7 | 0.00 | 0.00 | 0.00 | 97 | 1012.7 |
| 20260509101210 | 73 | 296 | 0.9 | 0.9 | 0.00 | 0.00 | 0.00 | 97 | 1012.7 |
| 20260509100708 | 73 | 271 | 0.0 | 0.0 | 0.00 | 0.00 | 0.00 | 97 | 1012.4 |
| 20260509100204 | 73 | 258 | 0.0 | 0.0 | 0.00 | 0.00 | 0.00 | 97 | 1012.0 |
| 20260509095701 | 73 | 254 | 0.0 | 0.0 | 0.00 | 0.00 | 0.00 | 97 | 1012.0 |
| 20260509095158 | 73 | 254 | 0.0 | 0.0 | 0.00 | 0.00 | 0.00 | 97 | 1012.0 |
| 20260509094655 | 73 | 254 | 0.0 | 0.0 | 0.00 | 0.00 | 0.00 | 97 | 1011.7 |
| 20260509094152 | 73 | 254 | 0.0 | 0.0 | 0.00 | 0.00 | 0.00 | 97 | 1011.7 |
| 20260509093651 | 73 | 254 | 0.0 | 0.0 | 0.00 | 0.00 | 0.00 | 97 | 1011.7 |
| 20260509093147 | 73 | 247 | 0.0 | 0.0 | 0.00 | 0.00 | 0.00 | 97 | 1011.7 |
| 20260509092645 | 73 | 232 | 0.0 | 0.0 | 0.00 | 0.00 | 0.00 | 97 | 1011.7 |
| 20260509092143 | 73 | 244 | 0.0 | 0.0 | 0.00 | 0.00 | 0.00 | 97 | 1011.7 |
| 20260509091641 | 73 | 273 | 0.0 | 0.0 | 0.00 | 0.00 | 0.00 | 97 | 1011.7 |
| 20260509091137 | 73 | 282 | 0.0 | 0.0 | 0.00 | 0.00 | 0.00 | 97 | 1011.7 |
| 20260509090635 | 73 | 258 | 0.0 | 0.0 | 0.00 | 0.00 | 0.00 | 97 | 1011.7 |
| 20260509090132 | 73 | 27 | 0.0 | 0.0 | 0.00 | 0.00 | 0.00 | 97 | 1011.7 |
| 20260509085629 | 73 | 209 | 0.9 | 1.7 | 0.00 | 0.00 | 0.00 | 97 | 1011.7 |
| 20260509085125 | 73 | 228 | 0.0 | 0.0 | 0.00 | 0.00 | 0.00 | 97 | 1011.7 |
| 20260509084622 | 73 | 243 | 0.0 | 0.0 | 0.00 | 0.00 | 0.00 | 97 | 1011.7 |
| 20260509084119 | 73 | 246 | 0.0 | 0.0 | 0.00 | 0.00 | 0.00 | 96 | 1011.7 |
| 20260509083617 | 73 | 282 | 0.0 | 0.9 | 0.00 | 0.00 | 0.00 | 96 | 1011.7 |
| 20260509083113 | 73 | 323 | 0.0 | 0.0 | 0.00 | 0.00 | 0.00 | 96 | 1012.0 |
| 20260509082611 | 73 | 311 | 0.0 | 0.0 | 0.00 | 0.00 | 0.00 | 96 | 1012.4 |
| 20260509082107 | 73 | 311 | 0.0 | 0.0 | 0.00 | 0.00 | 0.00 | 96 | 1012.4 |
| 20260509081605 | 73 | 312 | 0.9 | 0.9 | 0.00 | 0.00 | 0.00 | 96 | 1012.7 |
| 20260509081101 | 73 | 315 | 0.0 | 0.0 | 0.00 | 0.00 | 0.00 | 96 | 1012.0 |
| 20260509080600 | 73 | 311 | 0.9 | 0.9 | 0.00 | 0.00 | 0.00 | 95 | 1012.0 |
| 20260509080057 | 73 | 40 | 0.0 | 0.9 | 0.00 | 0.00 | 0.00 | 95 | 1012.0 |
| 20260509075555 | 73 | 286 | 0.0 | 0.0 | 0.00 | 0.00 | 0.00 | 95 | 1012.0 |
| 20260509075053 | 73 | 308 | 0.9 | 0.9 | 0.00 | 0.00 | 0.00 | 95 | 1011.7 |
| 20260509074549 | 73 | 24 | 0.0 | 0.0 | 0.00 | 0.00 | 0.00 | 95 | 1012.0 |
| 20260509074046 | 73 | 276 | 0.0 | 0.0 | 0.00 | 0.00 | 0.00 | 95 | 1012.0 |
| 20260509073542 | 73 | 278 | 0.0 | 0.0 | 0.00 | 0.00 | 0.00 | 95 | 1012.0 |
| 20260509073039 | 73 | 279 | 0.0 | 0.0 | 0.00 | 0.00 | 0.00 | 95 | 1012.4 |
| 20260509072535 | 73 | 290 | 0.0 | 0.0 | 0.00 | 0.00 | 0.00 | 95 | 1012.4 |
| 20260509072032 | 73 | 293 | 0.9 | 0.9 | 0.00 | 0.00 | 0.00 | 95 | 1012.0 |
| 20260509071529 | 73 | 268 | 0.0 | 0.0 | 0.00 | 0.00 | 0.00 | 95 | 1012.4 |
| 20260509071026 | 73 | 262 | 0.0 | 0.0 | 0.00 | 0.00 | 0.00 | 95 | 1012.7 |
| 20260509070523 | 73 | 261 | 0.0 | 0.0 | 0.00 | 0.00 | 0.00 | 95 | 1012.4 |
| 20260509070020 | 73 | 247 | 0.0 | 0.0 | 0.00 | 0.00 | 0.00 | 95 | 1012.0 |
| 20260509065515 | 73 | 235 | 0.9 | 0.9 | 0.00 | 0.00 | 0.00 | 95 | 1012.0 |
| 20260509065012 | 73 | 235 | 0.9 | 0.9 | 0.00 | 0.00 | 0.00 | 95 | 1012.0 |
| 20260509064509 | 73 | 201 | 0.9 | 1.7 | 0.00 | 0.00 | 0.00 | 95 | 1012.0 |
| 20260509064007 | 73 | 206 | 0.9 | 1.7 | 0.00 | 0.00 | 0.00 | 95 | 1012.0 |
| 20260509063502 | 73 | 225 | 0.9 | 0.9 | 0.00 | 0.00 | 0.00 | 95 | 1012.0 |
| 20260509063000 | 73 | 260 | 0.9 | 1.7 | 0.00 | 0.00 | 0.00 | 94 | 1012.4 |
| 20260509062457 | 73 | 201 | 3.5 | 4.3 | 0.00 | 0.00 | 0.00 | 94 | 1012.4 |
| 20260509061955 | 73 | 226 | 0.0 | 0.0 | 0.00 | 0.00 | 0.00 | 94 | 1011.7 |
| 20260509061451 | 73 | 251 | 0.0 | 0.0 | 0.00 | 0.00 | 0.00 | 94 | 1011.7 |
| 20260509060949 | 73 | 232 | 1.7 | 1.7 | 0.00 | 0.00 | 0.00 | 94 | 1011.7 |
| 20260509060446 | 73 | 211 | 0.0 | 0.9 | 0.00 | 0.00 | 0.00 | 94 | 1011.7 |
| 20260509055942 | 73 | 219 | 1.7 | 2.6 | 0.00 | 0.00 | 0.00 | 94 | 1011.7 |
| 20260509055437 | 73 | 196 | 2.6 | 4.3 | 0.00 | 0.00 | 0.00 | 94 | 1012.0 |
| 20260509054933 | 73 | 153 | 0.9 | 1.7 | 0.00 | 0.00 | 0.00 | 94 | 1012.4 |
| 20260509054430 | 73 | 185 | 0.9 | 0.9 | 0.00 | 0.00 | 0.00 | 94 | 1011.7 |
| 20260509053929 | 73 | 159 | 0.9 | 0.9 | 0.00 | 0.00 | 0.00 | 93 | 1011.7 |
| 20260509053426 | 73 | 171 | 3.5 | 7.0 | 0.00 | 0.00 | 0.00 | 93 | 1011.7 |
| 20260509052923 | 73 | 187 | 3.5 | 4.3 | 0.00 | 0.00 | 0.00 | 93 | 1011.7 |
| 20260509052421 | 73 | 200 | 1.7 | 1.7 | 0.00 | 0.00 | 0.00 | 92 | 1011.3 |
| 20260509051919 | 73 | 202 | 1.7 | 1.7 | 0.00 | 0.00 | 0.00 | 92 | 1011.7 |
| 20260509051416 | 73 | 212 | 3.5 | 4.3 | 0.00 | 0.00 | 0.00 | 92 | 1011.3 |
| 20260509050913 | 73 | 240 | 0.9 | 0.9 | 0.00 | 0.00 | 0.00 | 92 | 1011.7 |
| 20260509050410 | 73 | 148 | 0.9 | 0.9 | 0.00 | 0.00 | 0.00 | 92 | 1011.7 |
| 20260509045907 | 73 | 156 | 1.7 | 1.7 | 0.00 | 0.00 | 0.00 | 92 | 1011.3 |
| 20260509045403 | 73 | 212 | 0.9 | 0.9 | 0.00 | 0.00 | 0.00 | 91 | 1011.3 |
| 20260509044901 | 73 | 243 | 0.0 | 0.0 | 0.00 | 0.00 | 0.00 | 91 | 1011.3 |
| 20260509044358 | 73 | 206 | 0.9 | 0.9 | 0.00 | 0.00 | 0.00 | 91 | 1011.3 |
| 20260509043855 | 74 | 215 | 0.0 | 0.9 | 0.00 | 0.00 | 0.00 | 90 | 1011.3 |
| 20260509043351 | 74 | 223 | 0.9 | 0.9 | 0.00 | 0.00 | 0.00 | 90 | 1011.7 |
| 20260509042847 | 74 | 137 | 0.9 | 1.7 | 0.00 | 0.00 | 0.00 | 90 | 1011.3 |
| 20260509042343 | 74 | 241 | 0.9 | 0.9 | 0.00 | 0.00 | 0.00 | 89 | 1011.7 |
| 20260509041840 | 74 | 232 | 0.9 | 0.9 | 0.00 | 0.00 | 0.00 | 89 | 1011.7 |
| 20260509041337 | 74 | 204 | 0.0 | 0.9 | 0.00 | 0.00 | 0.00 | 89 | 1011.7 |
| 20260509040835 | 74 | 239 | 0.0 | 0.0 | 0.00 | 0.00 | 0.00 | 88 | 1011.7 |
| 20260509040333 | 75 | 236 | 0.0 | 0.9 | 0.00 | 0.00 | 0.00 | 88 | 1011.7 |
| 20260509035829 | 75 | 227 | 0.0 | 0.0 | 0.00 | 0.00 | 0.00 | 87 | 1011.7 |
| 20260509035327 | 75 | 230 | 0.0 | 0.0 | 0.00 | 0.00 | 0.00 | 87 | 1011.7 |
| 20260509034822 | 75 | 227 | 0.9 | 0.9 | 0.00 | 0.00 | 0.00 | 87 | 1011.7 |
| 20260509034321 | 75 | 214 | 1.7 | 1.7 | 0.00 | 0.00 | 0.00 | 87 | 1011.7 |
| 20260509033817 | 75 | 242 | 0.0 | 0.9 | 0.00 | 0.00 | 0.00 | 87 | 1011.7 |
| 20260509033315 | 75 | 221 | 0.9 | 0.9 | 0.00 | 0.00 | 0.00 | 87 | 1011.7 |
| 20260509032811 | 75 | 247 | 0.0 | 0.9 | 0.00 | 0.00 | 0.00 | 87 | 1011.7 |
| 20260509032308 | 75 | 219 | 0.0 | 0.9 | 0.00 | 0.00 | 0.00 | 87 | 1011.7 |
| 20260509031806 | 75 | 243 | 0.0 | 0.0 | 0.00 | 0.00 | 0.00 | 87 | 1011.3 |
| 20260509031303 | 75 | 259 | 0.0 | 0.0 | 0.00 | 0.00 | 0.00 | 87 | 1011.3 |
| 20260509030801 | 75 | 210 | 0.0 | 0.9 | 0.00 | 0.00 | 0.00 | 86 | 1011.3 |
| 20260509030259 | 75 | 219 | 0.0 | 0.9 | 0.00 | 0.00 | 0.00 | 86 | 1011.0 |
| 20260509025755 | 75 | 189 | 0.9 | 0.9 | 0.00 | 0.00 | 0.00 | 85 | 1011.3 |
| 20260509025250 | 75 | 238 | 0.9 | 0.9 | 0.00 | 0.00 | 0.00 | 85 | 1011.3 |
| 20260509024746 | 75 | 189 | 0.9 | 0.9 | 0.00 | 0.00 | 0.00 | 85 | 1011.0 |
| 20260509024242 | 75 | 225 | 0.9 | 0.9 | 0.00 | 0.00 | 0.00 | 84 | 1011.3 |
| 20260509023740 | 76 | 227 | 0.9 | 0.9 | 0.00 | 0.00 | 0.00 | 84 | 1011.0 |
| 20260509023237 | 76 | 249 | 0.9 | 0.9 | 0.00 | 0.00 | 0.00 | 84 | 1011.0 |
| 20260509022733 | 76 | 231 | 0.0 | 0.0 | 0.00 | 0.00 | 0.00 | 83 | 1011.0 |
| 20260509022231 | 76 | 179 | 0.9 | 1.7 | 0.00 | 0.00 | 0.00 | 83 | 1011.0 |
| 20260509021728 | 76 | 228 | 0.0 | 0.0 | 0.00 | 0.00 | 0.00 | 83 | 1010.7 |
| 20260509021225 | 76 | 281 | 0.0 | 0.0 | 0.00 | 0.00 | 0.00 | 83 | 1010.7 |
| 20260509020723 | 77 | 215 | 0.0 | 0.9 | 0.00 | 0.00 | 0.00 | 82 | 1010.7 |
| 20260509020219 | 77 | 198 | 0.0 | 0.0 | 0.00 | 0.00 | 0.00 | 81 | 1010.7 |
| 20260509015718 | 77 | 213 | 0.9 | 0.9 | 0.00 | 0.00 | 0.00 | 81 | 1010.3 |
| 20260509015216 | 77 | 233 | 0.0 | 0.9 | 0.00 | 0.00 | 0.00 | 81 | 1010.3 |
| 20260509014712 | 77 | 178 | 0.9 | 0.9 | 0.00 | 0.00 | 0.00 | 81 | 1010.3 |
| 20260509014209 | 77 | 172 | 0.0 | 0.0 | 0.00 | 0.00 | 0.00 | 81 | 1010.7 |
| 20260509013705 | 77 | 219 | 1.7 | 1.7 | 0.00 | 0.00 | 0.00 | 81 | 1010.3 |
| 20260509013201 | 77 | 180 | 0.9 | 1.7 | 0.00 | 0.00 | 0.00 | 80 | 1010.3 |
| 20260509012658 | 77 | 173 | 1.7 | 1.7 | 0.00 | 0.00 | 0.00 | 81 | 1010.3 |
| 20260509012154 | 77 | 148 | 3.5 | 4.3 | 0.00 | 0.00 | 0.00 | 80 | 1010.7 |
| 20260509011652 | 78 | 240 | 0.9 | 1.7 | 0.00 | 0.00 | 0.00 | 80 | 1010.3 |
| 20260509011149 | 78 | 165 | 1.7 | 2.6 | 0.00 | 0.00 | 0.00 | 80 | 1010.3 |
| 20260509010647 | 78 | 166 | 2.6 | 4.3 | 0.00 | 0.00 | 0.00 | 80 | 1010.3 |
| 20260509010143 | 78 | 203 | 0.9 | 0.9 | 0.00 | 0.00 | 0.00 | 79 | 1010.3 |
| 20260509005641 | 78 | 225 | 1.7 | 1.7 | 0.00 | 0.00 | 0.00 | 79 | 1010.0 |
| 20260509005137 | 78 | 69 | 0.0 | 0.9 | 0.00 | 0.00 | 0.00 | 79 | 1010.0 |